Location: Innsbruck
(47.2657°N, 11.3914°E)
Time: 19:49:06
(UTC+02:00)

N. Korean satellite - Pass Details

Date: 25 September 2021
Orbit: 450 x 495 km, 97.3° (Epoch: 15 October)

Event Time Altitude Azimuth Distance (km) Brightness Sun altitude
Rises 05:30:52 0° 31° (NNE) 2,526 11.0 -16.6°
Reaches altitude 10° 05:33:44 10° 57° (ENE) 1,653 10.5 -16.1°
Maximum altitude 05:35:42 14° 91° (E) 1,415 10.0 -15.8°
Drops below altitude 10° 05:37:41 10° 125° (SE) 1,659 9.8 -15.5°
Sets 05:40:33 0° 151° (SSE) 2,543 10.4 -15.0°
